| time (UTC) | temp F | wind direction | speed MPH | gust MPH | rain 1hr in | rain 24hr in | rain mn in | humidity % | barometer mb |
| 20260507115859 | 71 | 7 | 4.0 | 9.0 | 0.00 | 0.00 | 0.00 | 86 | 1011.0 |
| 20260507113853 | 71 | 47 | 4.0 | 10.0 | 0.00 | 0.00 | 0.00 | 86 | 1010.9 |
| 20260507113356 | 71 | 67 | 4.0 | 10.0 | 0.00 | 0.00 | 0.00 | 87 | 1010.7 |
| 20260507112355 | 71 | 317 | 3.0 | 7.0 | 0.00 | 0.00 | 0.00 | 86 | 1010.5 |
| 20260507111356 | 71 | 64 | 4.0 | 11.0 | 0.00 | 0.00 | 0.00 | 87 | 1010.3 |
| 20260507110854 | 71 | 46 | 4.0 | 11.0 | 0.00 | 0.00 | 0.00 | 86 | 1010.2 |
| 20260507110357 | 71 | 26 | 4.0 | 9.0 | 0.00 | 0.00 | 0.00 | 86 | 1010.3 |
| 20260507105853 | 71 | 50 | 3.0 | 9.0 | 0.00 | 0.00 | 0.00 | 86 | 1010.4 |
| 20260507105356 | 71 | 356 | 3.0 | 8.0 | 0.00 | 0.00 | 0.00 | 86 | 1010.5 |
| 20260507104848 | 71 | 56 | 3.0 | 8.0 | 0.00 | 0.00 | 0.00 | 86 | 1010.5 |
| 20260507104347 | 71 | 35 | 3.0 | 8.0 | 0.00 | 0.00 | 0.00 | 86 | 1010.5 |
| 20260507103841 | 71 | 45 | 4.0 | 9.0 | 0.00 | 0.00 | 0.00 | 87 | 1010.3 |
| 20260507103336 | 71 | 54 | 4.0 | 9.0 | 0.00 | 0.00 | 0.00 | 87 | 1010.2 |
| 20260507102836 | 71 | 61 | 4.0 | 8.0 | 0.00 | 0.00 | 0.00 | 87 | 1010.1 |
| 20260507102335 | 71 | 39 | 4.0 | 7.0 | 0.00 | 0.00 | 0.00 | 87 | 1010.0 |
| 20260507101836 | 71 | 34 | 4.0 | 9.0 | 0.00 | 0.00 | 0.00 | 87 | 1010.1 |
| 20260507101336 | 71 | 41 | 4.0 | 9.0 | 0.00 | 0.00 | 0.00 | 87 | 1010.3 |
| 20260507100835 | 71 | 65 | 4.0 | 8.0 | 0.00 | 0.00 | 0.00 | 87 | 1010.5 |
| 20260507100336 | 71 | 36 | 4.0 | 8.0 | 0.00 | 0.00 | 0.00 | 87 | 1010.6 |
| 20260507095836 | 71 | 121 | 4.0 | 8.0 | 0.00 | 0.00 | 0.00 | 87 | 1010.6 |
| 20260507095336 | 71 | 52 | 3.0 | 8.0 | 0.00 | 0.00 | 0.00 | 87 | 1010.7 |
| 20260507094336 | 72 | 57 | 4.0 | 9.0 | 0.00 | 0.00 | 0.00 | 87 | 1010.7 |
| 20260507093836 | 72 | 61 | 4.0 | 8.0 | 0.00 | 0.00 | 0.00 | 87 | 1010.6 |
| 20260507093336 | 72 | 0 | 4.0 | 8.0 | 0.00 | 0.00 | 0.00 | 86 | 1010.5 |
| 20260507092331 | 72 | 49 | 4.0 | 8.0 | 0.00 | 0.00 | 0.00 | 86 | 1010.3 |
| 20260507091826 | 72 | 56 | 4.0 | 8.0 | 0.00 | 0.00 | 0.00 | 87 | 1010.5 |
| 20260507091324 | 72 | 29 | 4.0 | 8.0 | 0.00 | 0.00 | 0.00 | 87 | 1010.4 |
| 20260507090826 | 73 | 55 | 4.0 | 8.0 | 0.00 | 0.00 | 0.00 | 87 | 1010.3 |
| 20260507090325 | 73 | 41 | 4.0 | 8.0 | 0.00 | 0.00 | 0.00 | 87 | 1010.2 |
| 20260507085826 | 73 | 263 | 3.0 | 6.0 | 0.00 | 0.00 | 0.00 | 86 | 1010.1 |
| 20260507084826 | 73 | 48 | 3.0 | 8.0 | 0.00 | 0.00 | 0.00 | 87 | 1010.3 |
| 20260507083827 | 73 | 76 | 4.0 | 8.0 | 0.00 | 0.00 | 0.00 | 88 | 1010.4 |
| 20260507083327 | 73 | 67 | 4.0 | 8.0 | 0.00 | 0.00 | 0.00 | 89 | 1010.4 |
| 20260507082837 | 73 | 42 | 4.0 | 8.0 | 0.00 | 0.00 | 0.00 | 89 | 1010.4 |
| 20260507082327 | 73 | 31 | 4.0 | 8.0 | 0.00 | 0.00 | 0.00 | 89 | 1010.1 |
| 20260507081824 | 73 | 30 | 4.0 | 10.0 | 0.00 | 0.00 | 0.00 | 90 | 1010.3 |
| 20260507081324 | 73 | 54 | 4.0 | 10.0 | 0.00 | 0.00 | 0.00 | 90 | 1010.2 |
| 20260507080823 | 74 | 42 | 4.0 | 9.0 | 0.00 | 0.00 | 0.00 | 90 | 1010.2 |
| 20260507080323 | 74 | 13 | 4.0 | 9.0 | 0.00 | 0.00 | 0.00 | 91 | 1010.2 |
| 20260507074820 | 74 | 312 | 4.0 | 9.0 | 0.00 | 0.00 | 0.00 | 92 | 1010.0 |
| 20260507074321 | 74 | 36 | 4.0 | 9.0 | 0.00 | 0.00 | 0.00 | 91 | 1009.9 |
| 20260507073820 | 75 | 21 | 3.0 | 6.0 | 0.00 | 0.00 | 0.00 | 91 | 1009.9 |
| 20260507072813 | 76 | 77 | 3.0 | 6.0 | 0.00 | 0.00 | 0.00 | 93 | 1010.0 |
| 20260507072314 | 77 | 19 | 3.0 | 6.0 | 0.00 | 0.00 | 0.00 | 95 | 1010.0 |
| 20260507071808 | 79 | 122 | 3.0 | 6.0 | 0.00 | 0.00 | 0.00 | 97 | 1010.0 |
| 20260507071309 | 79 | 138 | 3.0 | 6.0 | 0.00 | 0.00 | 0.00 | 97 | 1009.9 |
| 20260507070809 | 79 | 86 | 3.0 | 5.0 | 0.00 | 0.00 | 0.00 | 97 | 1009.9 |
| 20260507070308 | 79 | 141 | 3.0 | 6.0 | 0.00 | 0.00 | 0.00 | 97 | 1009.9 |
| 20260507065809 | 79 | 137 | 3.0 | 7.0 | 0.00 | 0.00 | 0.00 | 97 | 1010.0 |
| 20260507064808 | 79 | 134 | 3.0 | 7.0 | 0.00 | 0.00 | 0.00 | 97 | 1010.1 |
| 20260507063809 | 78 | 143 | 3.0 | 6.0 | 0.00 | 0.00 | 0.00 | 97 | 1010.0 |
| 20260507063309 | 79 | 124 | 3.0 | 6.0 | 0.00 | 0.00 | 0.00 | 97 | 1010.0 |
| 20260507062809 | 78 | 138 | 3.0 | 6.0 | 0.00 | 0.00 | 0.00 | 97 | 1010.1 |
| 20260507062309 | 78 | 122 | 2.0 | 5.0 | 0.00 | 0.00 | 0.00 | 97 | 1010.1 |
| 20260507061809 | 78 | 95 | 2.0 | 4.0 | 0.00 | 0.00 | 0.00 | 97 | 1010.2 |
| 20260507061309 | 79 | 113 | 2.0 | 5.0 | 0.00 | 0.00 | 0.00 | 97 | 1010.1 |
| 20260507060807 | 79 | 98 | 2.0 | 6.0 | 0.00 | 0.00 | 0.00 | 97 | 1010.1 |
| 20260507055804 | 79 | 143 | 2.0 | 6.0 | 0.00 | 0.00 | 0.00 | 96 | 1010.0 |
| 20260507055306 | 79 | 131 | 2.0 | 4.0 | 0.00 | 0.00 | 0.00 | 96 | 1010.0 |
| 20260507054804 | 79 | 91 | 2.0 | 5.0 | 0.00 | 0.00 | 0.00 | 96 | 1010.0 |
| 20260507054303 | 79 | 91 | 2.0 | 5.0 | 0.00 | 0.00 | 0.00 | 96 | 1010.0 |
| 20260507053804 | 79 | 46 | 2.0 | 6.0 | 0.00 | 0.00 | 0.00 | 96 | 1010.0 |
| 20260507053304 | 79 | 85 | 3.0 | 6.0 | 0.00 | 0.00 | 0.00 | 96 | 1010.0 |
| 20260507052804 | 79 | 117 | 2.0 | 5.0 | 0.00 | 0.00 | 0.00 | 95 | 1010.1 |
| 20260507052306 | 79 | 110 | 2.0 | 5.0 | 0.00 | 0.00 | 0.00 | 95 | 1010.1 |
| 20260507051804 | 79 | 121 | 2.0 | 5.0 | 0.00 | 0.00 | 0.00 | 95 | 1010.2 |
| 20260507051304 | 79 | 108 | 2.0 | 5.0 | 0.00 | 0.00 | 0.00 | 95 | 1010.1 |
| 20260507050805 | 79 | 94 | 2.0 | 5.0 | 0.00 | 0.00 | 0.00 | 95 | 1010.0 |
| 20260507050305 | 79 | 78 | 2.0 | 4.0 | 0.00 | 0.00 | 0.00 | 95 | 1010.1 |
| 20260507045302 | 79 | 85 | 2.0 | 6.0 | 0.00 | 0.00 | 0.00 | 95 | 1010.1 |
| 20260507044758 | 79 | 84 | 2.0 | 6.0 | 0.00 | 0.00 | 0.00 | 95 | 1009.9 |
| 20260507043756 | 79 | 45 | 3.0 | 5.0 | 0.00 | 0.00 | 0.00 | 95 | 1009.9 |
| 20260507043256 | 79 | 97 | 3.0 | 6.0 | 0.00 | 0.00 | 0.00 | 95 | 1009.8 |
| 20260507042756 | 79 | 118 | 3.0 | 6.0 | 0.00 | 0.00 | 0.00 | 95 | 1009.8 |
| 20260507042256 | 79 | 127 | 2.0 | 5.0 | 0.00 | 0.00 | 0.00 | 95 | 1009.8 |
| 20260507041256 | 79 | 114 | 2.0 | 6.0 | 0.00 | 0.00 | 0.00 | 95 | 1009.7 |
| 20260507040756 | 79 | 107 | 3.0 | 7.0 | 0.00 | 0.00 | 0.00 | 95 | 1009.7 |
| 20260507035756 | 79 | 138 | 3.0 | 7.0 | 0.00 | 0.00 | 0.00 | 95 | 1009.5 |
| 20260507035256 | 79 | 108 | 3.0 | 7.0 | 0.00 | 0.00 | 0.00 | 95 | 1009.4 |
| 20260507034757 | 79 | 99 | 3.0 | 7.0 | 0.00 | 0.00 | 0.00 | 95 | 1009.4 |
| 20260507033252 | 79 | 97 | 3.0 | 8.0 | 0.00 | 0.00 | 0.00 | 94 | 1009.2 |
| 20260507032752 | 79 | 83 | 4.0 | 8.0 | 0.00 | 0.00 | 0.00 | 94 | 1009.0 |
| 20260507032252 | 79 | 109 | 3.0 | 8.0 | 0.00 | 0.00 | 0.00 | 94 | 1009.0 |
| 20260507031752 | 79 | 145 | 3.0 | 6.0 | 0.00 | 0.00 | 0.00 | 94 | 1008.9 |
| 20260507031253 | 79 | 125 | 3.0 | 7.0 | 0.00 | 0.00 | 0.00 | 94 | 1008.8 |
| 20260507030752 | 79 | 114 | 3.0 | 7.0 | 0.00 | 0.00 | 0.00 | 94 | 1008.8 |
| 20260507030252 | 79 | 128 | 3.0 | 6.0 | 0.00 | 0.00 | 0.00 | 94 | 1008.7 |
| 20260507025753 | 79 | 127 | 3.0 | 6.0 | 0.00 | 0.00 | 0.00 | 94 | 1008.6 |
| 20260507024752 | 80 | 114 | 3.0 | 8.0 | 0.00 | 0.00 | 0.00 | 93 | 1008.5 |
| 20260507024253 | 80 | 131 | 3.0 | 8.0 | 0.00 | 0.00 | 0.00 | 93 | 1008.5 |
| 20260507023752 | 80 | 101 | 3.0 | 8.0 | 0.00 | 0.00 | 0.00 | 93 | 1008.4 |
| 20260507023253 | 80 | 87 | 2.0 | 6.0 | 0.00 | 0.00 | 0.00 | 92 | 1008.3 |
| 20260507022753 | 80 | 109 | 3.0 | 6.0 | 0.00 | 0.00 | 0.00 | 92 | 1008.2 |
| 20260507022251 | 80 | 95 | 3.0 | 7.0 | 0.00 | 0.00 | 0.00 | 92 | 1008.1 |
| 20260507021748 | 80 | 69 | 3.0 | 7.0 | 0.00 | 0.00 | 0.00 | 92 | 1008.0 |
| 20260507021249 | 80 | 107 | 3.0 | 7.0 | 0.00 | 0.00 | 0.00 | 92 | 1007.8 |
| 20260507020752 | 80 | 107 | 3.0 | 6.0 | 0.00 | 0.00 | 0.00 | 91 | 1007.7 |
| 20260507020249 | 80 | 156 | 3.0 | 6.0 | 0.00 | 0.00 | 0.00 | 91 | 1007.6 |
| 20260507015752 | 81 | 115 | 3.0 | 7.0 | 0.00 | 0.00 | 0.00 | 91 | 1007.6 |
| 20260507015249 | 81 | 121 | 3.0 | 7.0 | 0.00 | 0.00 | 0.00 | 91 | 1007.5 |
| 20260507014752 | 81 | 108 | 3.0 | 7.0 | 0.00 | 0.00 | 0.00 | 91 | 1007.4 |
| 20260507014249 | 81 | 107 | 3.0 | 6.0 | 0.00 | 0.00 | 0.00 | 91 | 1007.4 |
| 20260507013752 | 81 | 157 | 3.0 | 9.0 | 0.00 | 0.00 | 0.00 | 90 | 1007.3 |
| 20260507013249 | 81 | 158 | 4.0 | 9.0 | 0.00 | 0.00 | 0.00 | 90 | 1007.2 |
| 20260507012752 | 81 | 121 | 3.0 | 8.0 | 0.00 | 0.00 | 0.00 | 90 | 1007.2 |
| 20260507012249 | 81 | 106 | 3.0 | 8.0 | 0.00 | 0.00 | 0.00 | 90 | 1007.0 |
| 20260507011752 | 82 | 78 | 3.0 | 7.0 | 0.00 | 0.00 | 0.00 | 89 | 1006.9 |
| 20260507010746 | 82 | 111 | 3.0 | 7.0 | 0.00 | 0.00 | 0.00 | 89 | 1006.8 |
| 20260507010246 | 82 | 122 | 3.0 | 7.0 | 0.00 | 0.00 | 0.00 | 88 | 1006.8 |
| 20260507005749 | 82 | 78 | 3.0 | 7.0 | 0.00 | 0.00 | 0.00 | 88 | 1006.7 |
| 20260507005244 | 82 | 114 | 3.0 | 7.0 | 0.00 | 0.00 | 0.00 | 88 | 1006.6 |
| 20260507004747 | 82 | 48 | 4.0 | 8.0 | 0.00 | 0.00 | 0.00 | 87 | 1006.6 |
| 20260507003747 | 83 | 76 | 3.0 | 8.0 | 0.00 | 0.00 | 0.00 | 86 | 1006.6 |
| 20260507003244 | 83 | 81 | 3.0 | 8.0 | 0.00 | 0.00 | 0.00 | 86 | 1006.6 |
| 20260507002747 | 83 | 123 | 3.0 | 6.0 | 0.00 | 0.00 | 0.00 | 86 | 1006.5 |
| 20260507002245 | 83 | 110 | 3.0 | 10.0 | 0.00 | 0.00 | 0.00 | 86 | 1006.4 |
| 20260507001747 | 83 | 99 | 3.0 | 10.0 | 0.00 | 0.00 | 0.00 | 86 | 1006.4 |
| 20260507001245 | 83 | 135 | 4.0 | 11.0 | 0.00 | 0.00 | 0.00 | 86 | 1006.4 |
| 20260507000747 | 84 | 103 | 4.0 | 11.0 | 0.00 | 0.00 | 0.00 | 86 | 1006.2 |
| 20260507000245 | 84 | 141 | 3.0 | 9.0 | 0.00 | 0.00 | 0.00 | 85 | 1006.1 |
| 20260506234741 | 84 | 104 | 4.0 | 10.0 | 0.00 | 0.00 | 0.00 | 84 | 1005.9 |
| 20260506233739 | 85 | 125 | 4.0 | 11.0 | 0.00 | 0.00 | 0.00 | 84 | 1005.8 |
| 20260506233236 | 85 | 94 | 4.0 | 11.0 | 0.00 | 0.00 | 0.00 | 84 | 1005.7 |
| 20260506232236 | 85 | 82 | 4.0 | 9.0 | 0.00 | 0.00 | 0.00 | 82 | 1005.6 |
| 20260506231736 | 86 | 149 | 4.0 | 11.0 | 0.00 | 0.00 | 0.00 | 82 | 1005.5 |
| 20260506231236 | 86 | 85 | 4.0 | 11.0 | 0.00 | 0.00 | 0.00 | 82 | 1005.3 |
| 20260506230736 | 87 | 98 | 4.0 | 9.0 | 0.00 | 0.00 | 0.00 | 80 | 1005.3 |
| 20260506230236 | 87 | 90 | 4.0 | 9.0 | 0.00 | 0.00 | 0.00 | 80 | 1005.3 |
| 20260506225736 | 87 | 62 | 4.0 | 9.0 | 0.00 | 0.00 | 0.00 | 80 | 1005.3 |
| 20260506225237 | 87 | 69 | 4.0 | 9.0 | 0.00 | 0.00 | 0.00 | 80 | 1005.3 |
| 20260506224737 | 87 | 216 | 4.0 | 9.0 | 0.00 | 0.00 | 0.00 | 80 | 1005.3 |
| 20260506224236 | 87 | 339 | 4.0 | 9.0 | 0.00 | 0.00 | 0.00 | 80 | 1005.2 |
| 20260506223233 | 88 | 128 | 3.0 | 8.0 | 0.00 | 0.00 | 0.00 | 78 | 1005.3 |
| 20260506222234 | 88 | 31 | 2.0 | 6.0 | 0.00 | 0.00 | 0.00 | 78 | 1005.3 |
| 20260506221734 | 88 | 16 | 2.0 | 5.0 | 0.00 | 0.00 | 0.00 | 78 | 1005.3 |
| 20260506221234 | 87 | 25 | 3.0 | 6.0 | 0.00 | 0.00 | 0.00 | 78 | 1005.4 |
| 20260506220735 | 87 | 85 | 3.0 | 6.0 | 0.00 | 0.00 | 0.00 | 78 | 1005.3 |
| 20260506220234 | 87 | 85 | 3.0 | 5.0 | 0.00 | 0.00 | 0.00 | 78 | 1005.3 |
| 20260506215734 | 87 | 32 | 2.0 | 5.0 | 0.00 | 0.00 | 0.00 | 78 | 1005.4 |
| 20260506215234 | 87 | 78 | 3.0 | 6.0 | 0.00 | 0.00 | 0.00 | 78 | 1005.4 |
| 20260506214734 | 87 | 77 | 3.0 | 6.0 | 0.00 | 0.00 | 0.00 | 78 | 1005.5 |
| 20260506213734 | 87 | 82 | 3.0 | 8.0 | 0.00 | 0.00 | 0.00 | 78 | 1005.5 |
| 20260506213233 | 87 | 125 | 3.0 | 8.0 | 0.00 | 0.00 | 0.00 | 79 | 1005.5 |
| 20260506212735 | 87 | 142 | 3.0 | 7.0 | 0.00 | 0.00 | 0.00 | 79 | 1005.5 |
| 20260506211232 | 87 | 222 | 3.0 | 7.0 | 0.00 | 0.00 | 0.00 | 79 | 1005.6 |
| 20260506210733 | 87 | 94 | 3.0 | 7.0 | 0.00 | 0.00 | 0.00 | 80 | 1005.7 |
| 20260506210233 | 87 | 194 | 3.0 | 6.0 | 0.00 | 0.00 | 0.00 | 80 | 1005.7 |
| 20260506205733 | 86 | 98 | 3.0 | 6.0 | 0.00 | 0.00 | 0.00 | 80 | 1005.7 |
| 20260506205233 | 86 | 134 | 3.0 | 9.0 | 0.00 | 0.00 | 0.00 | 81 | 1005.8 |
| 20260506203733 | 85 | 89 | 3.0 | 7.0 | 0.00 | 0.00 | 0.00 | 83 | 1005.9 |
| 20260506203233 | 85 | 113 | 3.0 | 7.0 | 0.00 | 0.00 | 0.00 | 82 | 1005.9 |
| 20260506202733 | 85 | 76 | 3.0 | 8.0 | 0.00 | 0.00 | 0.00 | 82 | 1005.9 |
| 20260506202233 | 85 | 87 | 3.0 | 8.0 | 0.00 | 0.00 | 0.00 | 83 | 1005.9 |
| 20260506201733 | 84 | 78 | 4.0 | 9.0 | 0.00 | 0.00 | 0.00 | 84 | 1006.1 |
| 20260506201232 | 84 | 110 | 4.0 | 10.0 | 0.00 | 0.00 | 0.00 | 84 | 1006.2 |
| 20260506200729 | 84 | 133 | 4.0 | 10.0 | 0.00 | 0.00 | 0.00 | 84 | 1006.2 |
| 20260506200229 | 84 | 133 | 4.0 | 9.0 | 0.00 | 0.00 | 0.00 | 83 | 1006.3 |
| 20260506195729 | 84 | 110 | 4.0 | 9.0 | 0.00 | 0.00 | 0.00 | 84 | 1006.3 |
| 20260506195229 | 84 | 96 | 4.0 | 9.0 | 0.00 | 0.00 | 0.00 | 84 | 1006.3 |
| 20260506194730 | 85 | 104 | 4.0 | 9.0 | 0.00 | 0.00 | 0.00 | 84 | 1006.4 |
| 20260506194232 | 85 | 95 | 4.0 | 10.0 | 0.00 | 0.00 | 0.00 | 83 | 1006.5 |
| 20260506193730 | 85 | 150 | 4.0 | 10.0 | 0.00 | 0.00 | 0.00 | 82 | 1006.5 |
| 20260506193231 | 86 | 69 | 4.0 | 10.0 | 0.00 | 0.00 | 0.00 | 81 | 1006.6 |
| 20260506192730 | 87 | 114 | 3.0 | 9.0 | 0.00 | 0.00 | 0.00 | 80 | 1006.6 |
| 20260506191730 | 89 | 175 | 1.0 | 4.0 | 0.00 | 0.00 | 0.00 | 73 | 1006.7 |
| 20260506191232 | 88 | 0 | 1.0 | 4.0 | 0.00 | 0.00 | 0.00 | 75 | 1006.7 |
| 20260506190730 | 88 | 0 | 2.0 | 5.0 | 0.00 | 0.00 | 0.00 | 76 | 1006.7 |
| 20260506185730 | 88 | 201 | 2.0 | 7.0 | 0.00 | 0.00 | 0.00 | 75 | 1006.7 |
| 20260506184727 | 88 | 143 | 2.0 | 5.0 | 0.00 | 0.00 | 0.00 | 75 | 1006.8 |
| 20260506184228 | 88 | 122 | 2.0 | 5.0 | 0.00 | 0.00 | 0.00 | 73 | 1006.8 |
| 20260506183725 | 88 | 211 | 2.0 | 5.0 | 0.00 | 0.00 | 0.00 | 75 | 1006.8 |
| 20260506183225 | 88 | 233 | 1.0 | 4.0 | 0.00 | 0.00 | 0.00 | 75 | 1006.8 |
| 20260506182725 | 88 | 191 | 1.0 | 4.0 | 0.00 | 0.00 | 0.00 | 74 | 1006.9 |
| 20260506182225 | 87 | 0 | 2.0 | 6.0 | 0.00 | 0.00 | 0.00 | 75 | 1006.9 |
| 20260506181725 | 87 | 257 | 3.0 | 7.0 | 0.00 | 0.00 | 0.00 | 75 | 1006.9 |
| 20260506181225 | 87 | 190 | 3.0 | 7.0 | 0.00 | 0.00 | 0.00 | 76 | 1007.0 |
| 20260506180725 | 87 | 181 | 3.0 | 7.0 | 0.00 | 0.00 | 0.00 | 75 | 1007.0 |
| 20260506175726 | 87 | 241 | 4.0 | 9.0 | 0.00 | 0.00 | 0.00 | 76 | 1007.0 |
| 20260506175225 | 87 | 231 | 4.0 | 9.0 | 0.00 | 0.00 | 0.00 | 76 | 1006.9 |
| 20260506174723 | 87 | 221 | 3.0 | 7.0 | 0.00 | 0.00 | 0.00 | 76 | 1007.0 |
| 20260506174223 | 87 | 284 | 3.0 | 8.0 | 0.00 | 0.00 | 0.00 | 76 | 1007.1 |
| 20260506173723 | 87 | 193 | 3.0 | 8.0 | 0.00 | 0.00 | 0.00 | 75 | 1007.1 |
| 20260506173223 | 87 | 225 | 3.0 | 6.0 | 0.00 | 0.00 | 0.00 | 75 | 1007.1 |
| 20260506172723 | 87 | 198 | 3.0 | 9.0 | 0.00 | 0.00 | 0.00 | 76 | 1007.1 |
| 20260506172223 | 86 | 170 | 3.0 | 9.0 | 0.00 | 0.00 | 0.00 | 76 | 1007.0 |
| 20260506171723 | 86 | 181 | 3.0 | 9.0 | 0.00 | 0.00 | 0.00 | 78 | 1007.0 |
| 20260506171223 | 86 | 177 | 3.0 | 8.0 | 0.00 | 0.00 | 0.00 | 77 | 1007.0 |
| 20260506170723 | 85 | 217 | 2.0 | 6.0 | 0.00 | 0.00 | 0.00 | 79 | 1007.0 |
| 20260506170214 | 84 | 205 | 3.0 | 8.0 | 0.00 | 0.00 | 0.00 | 81 | 1007.0 |
| 20260506165713 | 84 | 203 | 4.0 | 8.0 | 0.00 | 0.00 | 0.00 | 82 | 1007.1 |
| 20260506165214 | 84 | 251 | 3.0 | 6.0 | 0.00 | 0.00 | 0.00 | 82 | 1007.1 |
| 20260506164714 | 83 | 190 | 3.0 | 8.0 | 0.00 | 0.00 | 0.00 | 83 | 1007.2 |
| 20260506164217 | 83 | 152 | 3.0 | 8.0 | 0.00 | 0.00 | 0.00 | 84 | 1007.3 |
| 20260506163714 | 82 | 196 | 3.0 | 7.0 | 0.00 | 0.00 | 0.00 | 85 | 1007.3 |
| 20260506163221 | 82 | 175 | 3.0 | 7.0 | 0.00 | 0.00 | 0.00 | 85 | 1007.3 |
| 20260506162219 | 82 | 175 | 4.0 | 9.0 | 0.00 | 0.00 | 0.00 | 85 | 1007.3 |
| 20260506161714 | 82 | 202 | 3.0 | 9.0 | 0.00 | 0.00 | 0.00 | 86 | 1007.2 |
| 20260506161220 | 82 | 114 | 3.0 | 6.0 | 0.00 | 0.00 | 0.00 | 87 | 1007.2 |
| 20260506160226 | 81 | 162 | 4.0 | 9.0 | 0.00 | 0.00 | 0.00 | 88 | 1007.2 |
| 20260506155711 | 81 | 181 | 4.0 | 10.0 | 0.00 | 0.00 | 0.00 | 88 | 1007.1 |
| 20260506155213 | 81 | 133 | 3.0 | 10.0 | 0.00 | 0.00 | 0.00 | 88 | 1007.0 |
| 20260506154710 | 81 | 142 | 3.0 | 6.0 | 0.00 | 0.00 | 0.00 | 88 | 1007.0 |
| 20260506153710 | 81 | 187 | 3.0 | 7.0 | 0.00 | 0.00 | 0.00 | 89 | 1006.9 |
| 20260506153209 | 81 | 149 | 2.0 | 6.0 | 0.00 | 0.00 | 0.00 | 89 | 1006.8 |
| 20260506152710 | 81 | 233 | 2.0 | 4.0 | 0.00 | 0.00 | 0.00 | 89 | 1006.8 |
| 20260506151710 | 81 | 188 | 3.0 | 4.0 | 0.00 | 0.00 | 0.00 | 89 | 1006.7 |
| 20260506151209 | 80 | 222 | 2.0 | 5.0 | 0.00 | 0.00 | 0.00 | 90 | 1006.6 |
| 20260506150711 | 80 | 166 | 2.0 | 5.0 | 0.00 | 0.00 | 0.00 | 91 | 1006.6 |
| 20260506150157 | 80 | 139 | 2.0 | 5.0 | 0.00 | 0.00 | 0.00 | 91 | 1006.7 |
| 20260506145655 | 80 | 149 | 2.0 | 4.0 | 0.00 | 0.00 | 0.00 | 91 | 1006.7 |
| 20260506145154 | 80 | 185 | 2.0 | 4.0 | 0.00 | 0.00 | 0.00 | 92 | 1006.7 |
| 20260506144656 | 80 | 163 | 2.0 | 5.0 | 0.00 | 0.00 | 0.00 | 91 | 1006.8 |
| 20260506144140 | 80 | 162 | 2.0 | 5.0 | 0.00 | 0.00 | 0.00 | 91 | 1006.7 |
| 20260506143657 | 80 | 140 | 2.0 | 3.0 | 0.00 | 0.00 | 0.00 | 92 | 1006.7 |
| 20260506142643 | 79 | 127 | 2.0 | 5.0 | 0.00 | 0.00 | 0.00 | 93 | 1006.8 |
| 20260506142140 | 79 | 146 | 2.0 | 5.0 | 0.00 | 0.00 | 0.00 | 93 | 1006.8 |
| 20260506141644 | 79 | 133 | 2.0 | 4.0 | 0.00 | 0.00 | 0.00 | 93 | 1006.8 |
| 20260506141140 | 79 | 136 | 2.0 | 4.0 | 0.00 | 0.00 | 0.00 | 93 | 1006.9 |
| 20260506140645 | 79 | 165 | 2.0 | 4.0 | 0.00 | 0.00 | 0.00 | 94 | 1006.9 |
| 20260506135643 | 79 | 132 | 2.0 | 3.0 | 0.00 | 0.00 | 0.00 | 94 | 1006.9 |
| 20260506135141 | 79 | 143 | 2.0 | 3.0 | 0.00 | 0.00 | 0.00 | 93 | 1006.9 |
| 20260506134643 | 79 | 147 | 2.0 | 3.0 | 0.00 | 0.00 | 0.00 | 93 | 1006.9 |
| 20260506134139 | 79 | 175 | 2.0 | 4.0 | 0.00 | 0.00 | 0.00 | 93 | 1006.8 |
| 20260506132113 | 79 | 158 | 2.0 | 4.0 | 0.00 | 0.00 | 0.00 | 93 | 1006.8 |
| 20260506131616 | 79 | 145 | 2.0 | 4.0 | 0.00 | 0.00 | 0.00 | 93 | 1006.8 |
| 20260506131112 | 79 | 152 | 2.0 | 4.0 | 0.00 | 0.00 | 0.00 | 93 | 1006.8 |
| 20260506130616 | 78 | 191 | 2.0 | 6.0 | 0.00 | 0.00 | 0.00 | 92 | 1006.7 |
| 20260506130112 | 78 | 151 | 2.0 | 6.0 | 0.00 | 0.00 | 0.00 | 93 | 1006.6 |
| 20260506125616 | 78 | 114 | 2.0 | 5.0 | 0.00 | 0.00 | 0.00 | 93 | 1006.6 |
| 20260506124559 | 78 | 125 | 3.0 | 5.0 | 0.00 | 0.00 | 0.00 | 93 | 1006.4 |
| 20260506124100 | 78 | 139 | 2.0 | 5.0 | 0.00 | 0.00 | 0.00 | 93 | 1006.4 |
| 20260506123557 | 78 | 110 | 2.0 | 4.0 | 0.00 | 0.00 | 0.00 | 93 | 1006.4 |
| 20260506123056 | 78 | 161 | 2.0 | 4.0 | 0.00 | 0.00 | 0.00 | 93 | 1006.3 |
| 20260506122556 | 78 | 142 | 2.0 | 4.0 | 0.00 | 0.00 | 0.00 | 93 | 1006.2 |
| 20260506122056 | 78 | 140 | 2.0 | 4.0 | 0.00 | 0.00 | 0.00 | 93 | 1006.3 |
| 20260506121556 | 78 | 94 | 2.0 | 3.0 | 0.00 | 0.00 | 0.00 | 93 | 1006.3 |
| 20260506121057 | 78 | 172 | 2.0 | 4.0 | 0.00 | 0.00 | 0.00 | 93 | 1006.2 |